TAM3404 SBSP-SBVT

Flight info

Callsign TAM3404
Flight time N/A
Altitude 37000
Route UREMI UZ42 CXI DCT SEGLI DCT TODET
Aircraft A319/M-SDE3FGHIRWY/LB1

Departure

Time N/A
Airport Congonhas–Deputado Freitas Nobre Airport (SBSP)

Arrival

Time 2026-05-03 21:51
Airport Eurico de Aguiar Salles International Airport (SBVT)
Time Latitude Longitude Altitude Speed Heading
2026-05-03 21:07 -23.07259 -44.05972 35811 ft 528 kts 73°
2026-05-03 21:07 -23.06389 -44.02104 36091 ft 527 kts 73°
2026-05-03 21:07 -23.05519 -43.98236 36326 ft 527 kts 73°
2026-05-03 21:07 -23.04649 -43.94374 36548 ft 527 kts 73°
2026-05-03 21:08 -23.03784 -43.90507 36765 ft 527 kts 73°
2026-05-03 21:08 -23.02920 -43.86640 36990 ft 527 kts 73°
2026-05-03 21:08 -23.02056 -43.82772 37167 ft 528 kts 73°
2026-05-03 21:08 -23.01187 -43.78898 37198 ft 528 kts 73°
2026-05-03 21:09 -22.99389 -43.71162 37195 ft 526 kts 69°
2026-05-03 21:09 -22.96647 -43.63859 37198 ft 521 kts 63°
2026-05-03 21:10 -22.93798 -43.56634 37191 ft 521 kts 63°
2026-05-03 21:10 -22.90957 -43.49405 37196 ft 521 kts 63°
2026-05-03 21:11 -22.88109 -43.42173 37211 ft 521 kts 63°
2026-05-03 21:11 -22.85252 -43.34940 37214 ft 522 kts 63°
2026-05-03 21:12 -22.82378 -43.27717 37206 ft 521 kts 61°
2026-05-03 21:12 -22.78730 -43.21089 37207 ft 513 kts 51°
2026-05-03 21:13 -22.74797 -43.14624 37209 ft 513 kts 51°
2026-05-03 21:13 -22.70867 -43.08158 37194 ft 513 kts 52°
2026-05-03 21:14 -22.66920 -43.01721 37220 ft 512 kts 50°
2026-05-03 21:14 -22.62801 -42.95449 37212 ft 511 kts 48°
2026-05-03 21:15 -22.58578 -42.89250 37189 ft 513 kts 48°
2026-05-03 21:15 -22.54358 -42.83001 37171 ft 515 kts 49°
2026-05-03 21:16 -22.50167 -42.76696 37196 ft 517 kts 49°
2026-05-03 21:16 -22.45991 -42.70366 37199 ft 517 kts 49°
2026-05-03 21:17 -22.42503 -42.65120 37192 ft 517 kts 49°
2026-05-03 21:17 -22.37021 -42.58420 37191 ft 508 kts 38°
2026-05-03 21:18 -22.31995 -42.53051 37220 ft 509 kts 38°
2026-05-03 21:18 -22.26952 -42.47697 37221 ft 508 kts 38°
2026-05-03 21:19 -22.21920 -42.42348 37212 ft 508 kts 38°
2026-05-03 21:19 -22.16893 -42.36996 37197 ft 507 kts 39°
2026-05-03 21:20 -22.11870 -42.31659 37206 ft 506 kts 39°
2026-05-03 21:20 -22.06854 -42.26332 37205 ft 506 kts 39°
2026-05-03 21:21 -22.02688 -42.21903 37171 ft 506 kts 39°
2026-05-03 21:21 -21.97679 -42.16593 37195 ft 505 kts 39°
2026-05-03 21:22 -21.92668 -42.11290 37185 ft 504 kts 39°
2026-05-03 21:22 -21.87667 -42.06007 37178 ft 504 kts 39°
2026-05-03 21:23 -21.82649 -42.00722 37183 ft 504 kts 39°
2026-05-03 21:23 -21.77644 -41.95434 37175 ft 504 kts 38°
2026-05-03 21:24 -21.72645 -41.90149 37181 ft 504 kts 39°
2026-05-03 21:24 -21.67634 -41.84871 37187 ft 504 kts 39°
2026-05-03 21:25 -21.62627 -41.79612 37181 ft 503 kts 39°
2026-05-03 21:25 -21.57625 -41.74367 37181 ft 502 kts 38°
2026-05-03 21:26 -21.52630 -41.69125 37179 ft 502 kts 39°
2026-05-03 21:26 -21.47675 -41.63919 37166 ft 501 kts 38°
2026-05-03 21:27 -21.42681 -41.58700 37175 ft 501 kts 38°
2026-05-03 21:27 -21.37698 -41.53488 37179 ft 500 kts 38°
2026-05-03 21:28 -21.32708 -41.48268 37184 ft 500 kts 38°
2026-05-03 21:28 -21.27720 -41.43057 37174 ft 500 kts 38°
2026-05-03 21:29 -21.22731 -41.37853 37182 ft 500 kts 38°
2026-05-03 21:29 -21.17754 -41.32662 37195 ft 499 kts 38°
2026-05-03 21:30 -21.12792 -41.27485 37024 ft 494 kts 38°
2026-05-03 21:30 -21.10339 -41.24930 36739 ft 492 kts 38°
2026-05-03 21:30 -21.07876 -41.22370 35920 ft 496 kts 38°
2026-05-03 21:31 -21.05376 -41.19779 34972 ft 503 kts 38°
2026-05-03 21:31 -21.02852 -41.17163 34016 ft 508 kts 39°
2026-05-03 21:31 -21.00326 -41.14544 33037 ft 512 kts 39°
2026-05-03 21:31 -20.97788 -41.11905 31915 ft 508 kts 39°
2026-05-03 21:32 -20.95249 -41.09270 30582 ft 509 kts 39°
2026-05-03 21:32 -20.92704 -41.06632 29195 ft 508 kts 39°
2026-05-03 21:32 -20.90178 -41.04014 27887 ft 504 kts 40°
2026-05-03 21:32 -20.87687 -41.01426 27208 ft 492 kts 40°
2026-05-03 21:33 -20.85244 -40.98886 26425 ft 489 kts 40°
2026-05-03 21:33 -20.82803 -40.96359 25670 ft 487 kts 40°
2026-05-03 21:33 -20.80373 -40.93853 24922 ft 485 kts 41°
2026-05-03 21:33 -20.77950 -40.91355 24174 ft 483 kts 41°
2026-05-03 21:34 -20.75538 -40.88859 23384 ft 482 kts 41°
2026-05-03 21:34 -20.73138 -40.86382 22666 ft 476 kts 42°
2026-05-03 21:34 -20.70771 -40.83943 21970 ft 471 kts 42°
2026-05-03 21:34 -20.68424 -40.81529 21327 ft 465 kts 42°
2026-05-03 21:35 -20.66109 -40.79146 20702 ft 460 kts 42°
2026-05-03 21:35 -20.63822 -40.76787 20099 ft 455 kts 42°
2026-05-03 21:35 -20.61567 -40.74455 19527 ft 449 kts 42°
2026-05-03 21:35 -20.59333 -40.72148 18966 ft 445 kts 42°
2026-05-03 21:36 -20.57118 -40.69870 18419 ft 440 kts 42°
2026-05-03 21:36 -20.54924 -40.67615 17830 ft 436 kts 42°
2026-05-03 21:36 -20.52756 -40.65380 17303 ft 431 kts 42°
2026-05-03 21:36 -20.50608 -40.63171 16746 ft 427 kts 42°
2026-05-03 21:37 -20.48500 -40.61002 16194 ft 426 kts 41°
2026-05-03 21:37 -20.46376 -40.58819 15627 ft 423 kts 42°
2026-05-03 21:37 -20.44261 -40.56650 15060 ft 421 kts 41°
2026-05-03 21:37 -20.42162 -40.54495 14460 ft 419 kts 42°
2026-05-03 21:38 -20.40067 -40.52351 13861 ft 414 kts 41°
2026-05-03 21:38 -20.38015 -40.50261 13202 ft 399 kts 40°
2026-05-03 21:38 -20.35857 -40.48513 12656 ft 381 kts 30°
2026-05-03 21:38 -20.33542 -40.47255 12130 ft 369 kts 20°
2026-05-03 21:39 -20.31105 -40.46457 11594 ft 365 kts 12°
2026-05-03 21:39 -20.28635 -40.45859 11065 ft 363 kts 12°
2026-05-03 21:39 -20.26213 -40.45265 10884 ft 349 kts 12°
2026-05-03 21:39 -20.23925 -40.44689 10767 ft 336 kts 13°
2026-05-03 21:40 -20.21695 -40.44123 10646 ft 323 kts 13°
2026-05-03 21:40 -20.19545 -40.43583 10525 ft 312 kts 13°
2026-05-03 21:40 -20.17456 -40.43056 10319 ft 305 kts 13°
2026-05-03 21:40 -20.15405 -40.42536 10226 ft 302 kts 13°
2026-05-03 21:41 -20.13361 -40.42022 10062 ft 303 kts 13°
2026-05-03 21:41 -20.11384 -40.41215 9447 ft 304 kts 32°
2026-05-03 21:41 -20.09805 -40.39816 9182 ft 287 kts 51°
2026-05-03 21:41 -20.08738 -40.38098 8851 ft 272 kts 69°
2026-05-03 21:42 -20.08126 -40.36253 8526 ft 260 kts 74°
2026-05-03 21:42 -20.07579 -40.34447 8091 ft 255 kts 75°
2026-05-03 21:42 -20.07029 -40.32630 7434 ft 260 kts 75°
2026-05-03 21:42 -20.06469 -40.30786 6764 ft 264 kts 76°
2026-05-03 21:43 -20.05902 -40.28928 6274 ft 261 kts 75°
2026-05-03 21:43 -20.05354 -40.27140 6204 ft 249 kts 78°
2026-05-03 21:43 -20.04834 -40.25431 6116 ft 239 kts 77°
2026-05-03 21:43 -20.04339 -40.23753 6004 ft 237 kts 81°
2026-05-03 21:44 -20.04210 -40.22031 5667 ft 230 kts 102°
2026-05-03 21:44 -20.04589 -40.20418 5364 ft 221 kts 119°
2026-05-03 21:44 -20.05374 -40.19038 5009 ft 216 kts 135°
2026-05-03 21:44 -20.06472 -40.17984 4689 ft 210 kts 150°
2026-05-03 21:45 -20.07751 -40.17325 4404 ft 204 kts 165°
2026-05-03 21:45 -20.09130 -40.17061 4136 ft 200 kts 178°
2026-05-03 21:45 -20.10484 -40.17199 3873 ft 192 kts 192°
2026-05-03 21:45 -20.11729 -40.17704 3619 ft 192 kts 204°
2026-05-03 21:46 -20.12819 -40.18535 3359 ft 194 kts 218°
2026-05-03 21:46 -20.13664 -40.19644 3076 ft 192 kts 232°
2026-05-03 21:46 -20.14297 -40.20870 2827 ft 185 kts 234°
2026-05-03 21:46 -20.14905 -40.22037 2597 ft 176 kts 234°
2026-05-03 21:47 -20.15487 -40.23143 2436 ft 168 kts 233°
2026-05-03 21:47 -20.16056 -40.24219 2147 ft 163 kts 233°
2026-05-03 21:47 -20.16593 -40.25240 1927 ft 153 kts 232°
2026-05-03 21:47 -20.17101 -40.26197 1731 ft 145 kts 236°
2026-05-03 21:48 -20.17636 -40.27063 1542 ft 137 kts 228°
2026-05-03 21:48 -20.18298 -40.27735 1374 ft 128 kts 214°
2026-05-03 21:48 -20.19040 -40.28216 1207 ft 124 kts 205°
2026-05-03 21:48 -20.19843 -40.28523 1044 ft 122 kts 195°
2026-05-03 21:49 -20.20690 -40.28651 881 ft 124 kts 185°
2026-05-03 21:49 -20.21560 -40.28592 706 ft 130 kts 175°
2026-05-03 21:49 -20.22455 -40.28451 521 ft 131 kts 177°
2026-05-03 21:49 -20.23346 -40.28317 317 ft 127 kts 179°
2026-05-03 21:50 -20.24204 -40.28198 141 ft 122 kts 176°
2026-05-03 21:50 -20.25039 -40.28073 33 ft 116 kts 176°
2026-05-03 21:50 -20.25699 -40.27981 40 ft 72 kts 172°
2026-05-03 21:50 -20.26084 -40.27923 37 ft 50 kts 172°
2026-05-03 21:51 -20.26380 -40.27879 37 ft 38 kts 173°
2026-05-03 21:51 -20.26598 -40.27915 38 ft 23 kts 229°
2026-05-03 21:51 -20.26596 -40.28023 35 ft 9 kts 310°
2026-05-03 21:51 -20.26578 -40.28066 33 ft 6 kts 295°
2026-05-03 21:52 -20.26566 -40.28110 35 ft 6 kts 259°
2026-05-03 21:52 -20.26569 -40.28130 35 ft 2 kts 261°
2026-05-03 21:52 -20.26571 -40.28150 35 ft 3 kts 263°
2026-05-03 21:52 -20.26573 -40.28168 35 ft 0 kts 262°